PST,Max TemperatureF,Mean TemperatureF,Min TemperatureF,Max Dew PointF,MeanDew PointF,Min DewpointF,Max Humidity, Mean Humidity, Min Humidity, Max Sea Level PressureIn, Mean Sea Level PressureIn, Min Sea Level PressureIn, Max VisibilityMiles, Mean VisibilityMiles, Min VisibilityMiles, Max Wind SpeedMPH, Mean Wind SpeedMPH, Max Gust SpeedMPH,PrecipitationIn, CloudCover, Events, WindDirDegrees
2012-12-1,49,46,43,43,42,39,90,84,71,29.05,29.01,28.98,,,,14,7,20,0.12,,,123
2012-12-2,44,42,40,41,37,32,92,81,62,29.23,29.06,28.97,,,,23,10,23,0.04,,,208
2012-12-3,44,41,38,39,35,34,87,74,61,29.39,29.29,29.16,,,,30,19,40,0.08,,,194
2012-12-4,43,40,36,35,34,31,89,80,58,29.43,29.20,29.04,,,,20,9,26,0.16,,,178
2012-12-5,43,40,36,35,32,27,86,71,42,29.83,29.69,29.46,,,,30,17,37,0.04,,,249
2012-12-6,42,38,35,36,33,29,87,75,51,29.85,29.76,29.61,,,,31,16,40,0.16,,,215
2012-12-7,42,38,34,35,32,27,89,73,56,30.08,29.92,29.76,,,,38,22,48,0.08,,,331
2012-12-8,45,40,35,40,34,31,84,78,65,30.14,30.07,29.88,,,,36,9,48,0.08,,,131
2012-12-9,46,42,38,45,42,38,94,85,66,30.23,30.11,29.85,,,,45,26,58,0.12,,,281
2012-12-10,46,45,43,45,44,41,95,92,84,30.22,29.96,29.57,,,,32,15,40,0.67,,,243
2012-12-11,46,44,42,42,39,35,91,81,61,29.78,29.58,29.49,,,,37,29,44,0.03,,,330
2012-12-12,45,44,42,42,38,35,92,78,61,29.95,29.85,29.68,,,,33,24,40,0.31,,,300
2012-12-13,45,43,41,44,38,32,94,77,58,29.83,29.72,29.61,,,,33,24,39,0.16,,,321
2012-12-14,45,42,40,43,39,36,93,82,68,29.82,29.48,29.04,,,,48,24,66,0.35,,,217
2012-12-15,43,40,36,39,34,30,88,76,58,29.32,29.23,29.05,,,,32,20,38,0.08,,,298
2012-12-16,40,36,33,35,32,31,90,83,73,29.33,29.27,29.22,,,,21,9,28,0.20,,,88
2012-12-17,38,35,32,33,30,25,91,77,47,29.54,29.37,29.23,,,,28,15,21,0.12,,,283
2012-12-18,41,37,33,35,32,29,92,79,57,29.64,29.45,29.03,,,,24,11,36,0.12,,,146
2012-12-19,42,38,35,37,36,34,91,83,68,29.26,29.07,28.98,,,,26,16,32,0.20,,,177
2012-12-20,40,38,36,35,33,31,89,83,70,29.54,29.40,29.28,,,,10,7,18,0.04,,,115
2012-12-21,41,38,36,34,31,29,86,73,55,29.59,29.55,29.48,,,,21,10,31,0.01,,,105
2012-12-22,42,39,36,35,33,30,80,73,60,29.51,29.48,29.46,,,,17,12,24,0.03,,,112
2012-12-23,38,36,34,35,33,31,92,84,70,29.86,29.68,29.53,,,,14,7,,0.12,,,135
2012-12-24,43,38,34,34,30,27,90,70,50,29.92,29.82,29.62,,,,20,11,34,0.00,,,116
2012-12-25,45,41,37,37,35,33,85,70,57,29.61,29.57,29.55,,,,20,16,30,0.00,,,122
2012-12-26,42,40,38,38,37,35,91,85,72,29.83,29.74,29.62,,,,18,13,,0.16,,,172
2012-12-27,46,42,39,43,40,36,93,84,71,29.83,29.73,29.68,,,,31,18,39,0.28,,,167
2012-12-28,44,42,41,41,38,35,89,81,69,30.09,29.94,29.78,,,,16,10,23,0.04,,,257
2012-12-29,45,42,40,43,40,38,94,88,78,30.14,30.10,30.02,,,,31,10,38,0.00,,,172
2012-12-30,49,46,42,42,41,38,93,80,60,30.02,29.82,29.62,,,,43,29,54,0.04,,,180
2012-12-31,45,43,41,42,39,36,87,79,68,30.33,30.20,29.86,,,,30,18,37,0.02,,,213